Temperature
19 19 19 18 18 18 18 18 17 17 16 16 16 16 15 15 15 15 15 15 14 14 14 15 15 15 14 14 14 14 14 15 15 16 16 16 16 16 15 15 15 15 15
19 19 19 18 18 18 18 18 17 17 16 16 16 16 15 15 15 15 14 14 14 14 14 14 14 14 14 14 14 14 14 14 15 15 15 15 15 15 15 15 15 15 15
19 19 18 18 18 18 18 17 17 17 16 16 16 16 15 15 15 15 14 14 14 14 14 14 14 14 14 14 14 13 14 14 14 14 15 15 15 15 15 14 14 14 14
19 18 18 18 18 17 17 17 17 16 16 16 16 15 15 15 15 15 15 14 14 14 14 13 13 13 13 13 13 13 13 13 13 14 14 14 15 15 15 14 14 14 14
18 18 17 17 17 17 17 17 16 16 16 16 15 15 15 15 15 15 15 14 14 14 14 13 13 13 13 13 13 13 13 13 13 13 13 14 14 14 14 14 14 14 14
18 17 17 17 17 17 17 17 16 16 16 16 15 15 15 15 15 15 15 14 14 14 14 14 13 13 13 13 13 13 12 12 13 13 13 13 13 14 14 14 14 13 14
17 17 17 17 16 16 16 16 16 16 16 16 15 15 15 15 15 15 15 15 14 14 14 14 14 14 13 13 13 13 13 13 13 13 13 13 13 13 14 14 14 14 14
16 15 15 15 15 15 15 15 15 15 15 15 15 15 15 15 15 15 14 14 14 14 14 14 14 14 14 14 13 13 13 13 13 13 13 13 13 13 13 14 14 13 13
15 14 14 14 15 15 15 14 14 14 14 14 15 15 15 15 15 14 14 14 14 14 14 14 14 14 14 14 14 14 13 13 13 13 13 13 13 13 13 13 13 13 13
13 13 13 13 13 13 13 13 13 13 13 13 14 14 14 14 14 14 14 14 14 14 14 14 14 14 14 14 14 14 14 14 13 13 13 13 13 13 13 13 13 13 13
13 12 12 12 12 12 12 12 12 12 12 13 13 13 14 14 14 14 14 14 14 14 14 14 14 14 14 14 14 14 14 13 13 13 13 13 13 13 13 13 13 13 13
12 12 12 12 11 11 11 11 11 11 12 12 12 13 13 13 13 13 13 13 13 13 13 13 13 13 13 13 13 13 13 13 13 13 13 13 13 13 13 13 13 13 13
12 12 12 11 11 11 11 11 11 11 12 12 12 12 12 12 13 13 13 13 13 13 13 13 13 13 13 13 13 13 13 13 13 13 13 12 12 12 12 12 12 12 12
12 12 12 11 11 11 11 11 11 11 11 12 12 12 12 12 12 12 12 12 12 12 12 12 12 12 12 12 12 12 12 12 12 12 12 12 12 12 12 12 12 11 11
12 12 12 11 11 11 11 11 11 11 11 11 11 11 11 11 11 11 11 11 12 12 12 12 12 12 12 12 12 12 12 12 12 12 11 11 11 11 11 11 11 11 11
12 12 12 11 11 11 11 11 11 11 11 11 11 11 11 11 11 11 11 11 11 11 11 11 11 11 11 11 11 11 11 11 11 11 11 11 11 11 11 11 11 11 11
12 12 12 11 11 11 11 11 10 10 10 10 10 10 11 11 11 11 11 11 11 11 11 11 11 11 11 11 11 11 11 11 11 10 10 10 10 10 10 10 10 10 10
12 12 12 11 11 11 11 11 10 10 10 10 10 10 10 10 10 10 10 10 10 10 10 10 10 10 10 10 10 10 10 10 10 10 10 10 10 10 10 10 10 10 10
13 12 12 11 11 11 11 11 10 10 10 9 9 9 10 10 10 10 10 10 10 10 10 10 10 10 10 10 10 10 9 9 9 9 9 9 9 9 9 9 9 9 9
13 12 12 11 11 11 11 11 10 10 10 10 9 9 9 9 9 10 10 10 9 9 9 9 9 9 9 9 9 9 9 9 9 9 9 9 9 9 9 9 9 9 9
13 12 12 11 11 11 11 11 11 10 10 10 10 9 9 10 9 9 9 9 9 9 9 9 9 9 9 9 9 9 9 9 9 9 8 8 8 8 8 8 8 8 8
13 12 12 11 11 11 11 11 11 10 10 10 10 10 10 10 9 9 9 9 9 9 9 9 9 9 8 8 8 8 8 8 8 8 8 8 8 8 8 8 8 8 8
13 12 12 11 11 11 11 11 11 10 10 10 10 10 10 10 9 9 9 9 9 9 8 8 8 8 8 8 8 8 8 8 8 8 8 8 8 7 7 7 7 7 7
13 12 12 11 11 11 11 11 11 10 10 10 10 10 10 9 9 9 9 9 8 8 8 8 8 8 8 8 8 8 8 8 8 8 7 7 7 7 7 7 7 7 7
13 12 12 11 11 11 11 11 11 10 10 10 10 10 9 9 9 9 8 8 8 8 8 8 8 8 8 8 8 8 8 8 7 7 7 6 6 6 6 6 6 6 6
13 12 12 11 11 11 11 11 11 10 10 10 10 9 9 9 9 8 8 8 8 8 8 8 8 8 8 8 8 8 8 7 7 6 6 6 5 5 5 5 5 5 5
Wind_Speed
5 4 6 5 5 5 5 4 4 3 4 4 4 3 3 2 2 2 2 3 5 6 6 8 9 8 7 7 6 5 3 3 4 3 3 3 7 7 8 12 14 13 13
6 6 6 5 5 5 4 4 4 5 4 4 4 4 3 3 2 2 2 3 4 4 5 6 6 6 8 7 7 6 4 3 3 3 3 3 5 7 7 7 8 11 13
6 6 4 4 5 5 5 5 5 5 5 5 5 5 5 4 4 3 3 3 3 3 3 4 5 6 7 6 7 7 5 4 3 2 2 2 2 3 4 4 5 5 9
5 5 3 4 6 6 6 5 6 6 6 6 6 6 6 5 5 4 4 3 2 2 2 3 4 5 6 7 6 7 6 6 4 3 2 2 2 2 4 4 4 5 6
5 4 3 4 5 5 5 6 6 6 7 6 6 6 5 5 6 6 5 5 4 3 2 2 3 5 7 7 6 7 6 5 4 4 3 2 2 3 4 5 6 4 5
5 3 2 2 3 3 3 4 4 5 5 5 6 6 7 6 9 11 8 6 5 5 5 4 5 6 8 10 10 11 10 7 6 4 4 4 5 5 4 5 5 4 5
9 7 6 5 5 5 4 2 2 4 4 5 6 7 7 8 11 12 13 7 6 6 6 5 6 7 9 7 10 12 12 13 11 7 6 7 6 6 6 6 7 7 7
9 8 7 6 6 6 6 5 3 2 3 4 5 6 7 9 12 13 13 8 6 5 6 7 7 7 7 9 8 8 8 9 11 9 8 8 8 7 7 8 8 7 3
7 6 6 6 6 6 6 5 3 2 2 2 3 5 6 8 10 12 10 5 4 4 4 5 7 7 10 12 9 8 8 8 10 13 13 11 12 12 9 5 5 5 5
5 5 5 5 5 5 5 4 3 3 2 2 2 2 4 5 7 9 9 4 4 2 2 2 5 6 7 8 9 8 8 7 5 4 6 7 6 6 8 8 7 6 4
4 4 5 5 5 5 5 4 4 4 3 3 3 2 1 1 3 5 8 4 4 3 1 1 1 2 3 4 7 6 8 5 4 4 3 2 1 2 2 3 5 6 6
4 5 5 6 6 6 7 7 6 6 5 5 4 5 4 3 2 3 7 6 5 3 2 1 2 2 2 2 3 3 4 4 3 3 2 1 1 2 2 2 3 3 4
5 5 4 5 6 7 7 8 7 7 6 5 5 4 4 4 4 5 5 5 3 2 1 2 1 1 2 1 1 2 3 3 3 2 2 2 2 2 1 1 1 1 1
5 3 3 4 5 6 6 7 7 7 7 6 6 5 4 4 4 4 3 2 2 2 1 3 4 4 2 1 1 1 2 2 2 2 2 1 0 0 1 1 1 1 1
3 2 2 2 3 4 5 6 6 6 5 4 4 4 4 4 5 4 1 1 1 1 2 2 1 1 1 1 1 0 0 1 2 1 1 1 1 1 1 1 1 1 1
2 1 1 1 1 1 2 3 7 6 9 10 8 5 4 5 6 7 7 5 3 3 3 2 1 1 0 0 1 1 1 1 1 1 1 1 1 2 2 2 2 2 3
3 1 0 1 1 0 1 1 1 3 6 9 10 9 8 7 8 8 7 8 8 6 4 3 2 2 2 2 2 1 1 1 0 1 1 1 1 1 2 2 3 3 3
3 1 1 1 1 1 1 1 1 1 2 4 5 7 8 8 8 8 7 6 6 6 4 4 3 3 3 3 3 3 2 3 2 2 1 1 1 1 1 2 3 3 4
4 2 1 1 1 1 2 3 3 3 2 2 3 5 7 7 8 10 8 5 4 4 4 4 4 4 4 4 4 4 4 3 3 3 2 2 2 1 2 2 3 4 3
3 4 3 1 2 2 2 3 3 3 3 3 3 4 4 5 5 6 6 5 5 4 4 4 4 4 4 4 4 4 4 4 4 3 3 3 2 2 2 3 3 3 3
4 2 2 3 2 2 2 3 3 3 3 2 2 4 4 4 4 5 5 5 5 5 4 5 5 5 5 4 4 4 4 4 4 4 3 3 3 3 3 3 4 4 4
5 4 2 2 3 2 2 3 3 3 3 3 2 3 6 5 4 4 5 5 5 5 5 5 5 5 5 5 4 4 4 4 4 5 5 4 4 4 4 4 4 4 4
5 5 3 2 3 3 3 3 3 3 3 2 2 3 3 4 4 4 5 5 5 5 5 5 5 5 4 5 5 4 4 4 4 5 5 5 5 5 4 4 5 5 4
6 5 4 4 3 3 3 3 3 3 3 3 3 3 3 3 4 5 5 5 5 5 5 5 5 6 6 6 6 6 6 7 7 6 6 5 5 4 4 4 4 4 4
6 5 5 4 4 4 3 3 3 4 3 3 3 3 4 4 4 5 4 4 5 5 6 6 6 7 8 8 8 9 11 10 8 6 5 4 4 4 4 4 3 3 3
6 5 5 4 4 4 4 4 4 4 4 4 4 4 4 5 4 4 4 4 4 5 5 5 8 9 10 9 10 12 11 10 10 9 6 3 4 4 4 3 4 4 4
Wind_Direction
161 150 145 148 148 145 143 153 158 159 159 159 158 153 148 145 143 157 191 196 207 215 216 212 213 196 185 179 173 165 175 176 204 228 211 190 177 182 180 192 198 200 203
166 152 158 159 157 157 167 178 173 175 180 179 172 167 168 170 166 166 189 195 200 208 210 205 207 199 190 181 176 174 175 177 184 204 205 179 184 187 177 183 195 205 206
163 153 159 173 180 189 197 202 197 193 196 190 182 186 187 183 179 179 180 186 196 198 197 197 194 184 187 182 178 177 175 179 164 180 203 198 174 155 154 190 196 199 206
148 149 179 208 210 213 211 213 212 204 201 201 199 199 195 189 187 181 172 166 166 172 183 187 185 185 184 177 176 172 169 172 164 164 191 208 199 159 152 175 196 208 211
138 152 211 251 249 237 225 219 216 212 213 205 202 209 205 196 199 189 182 179 177 183 196 203 204 200 192 182 178 173 171 174 171 171 186 189 194 169 194 192 204 199 215
100 90 31 342 323 289 256 224 214 220 222 206 207 207 211 218 212 199 189 187 190 197 212 223 228 225 217 211 206 192 184 183 185 185 193 203 215 212 199 193 190 182 229
67 57 44 40 32 10 359 340 256 237 227 217 214 204 212 225 220 207 200 190 198 208 215 221 233 231 224 220 222 217 212 212 202 192 203 213 217 215 200 205 202 204 217
63 55 41 37 34 22 23 15 346 294 247 234 226 215 215 226 222 214 204 195 201 213 222 224 228 240 224 214 215 221 226 226 222 217 219 225 227 222 212 215 215 220 223
58 51 41 39 35 23 13 355 339 329 302 258 243 220 218 232 227 216 196 181 199 220 237 235 225 231 238 217 201 214 230 240 238 229 229 233 237 236 221 204 195 193 226
45 39 32 33 29 14 355 338 328 323 309 299 286 238 221 232 233 215 182 164 184 210 254 275 238 221 227 206 195 202 219 233 220 218 227 237 239 244 227 208 199 200 211
31 37 28 19 13 7 353 345 342 351 3 16 26 21 5 272 252 203 164 150 164 167 177 269 292 221 208 194 187 198 218 211 193 196 199 215 243 252 237 215 205 205 211
36 42 31 22 18 16 12 8 9 14 26 28 39 38 31 24 50 144 145 143 151 150 175 217 249 233 202 171 172 204 198 164 145 148 159 204 235 250 248 229 208 207 211
57 53 46 37 28 24 27 22 18 20 27 28 35 38 28 26 37 69 107 122 133 135 183 212 193 150 117 109 145 128 115 120 131 141 175 218 237 236 189 148 136 137 124
87 72 53 48 37 32 31 28 30 23 21 26 30 31 33 33 30 31 40 61 80 83 65 77 89 80 49 15 65 76 100 138 146 161 181 192 177 96 124 156 177 184 202
93 73 44 49 59 50 46 36 29 27 19 23 23 26 32 30 5 12 54 53 82 135 112 80 52 30 15 4 6 18 112 132 146 156 160 174 180 172 210 183 176 185 210
99 64 0 359 42 99 87 54 36 33 31 39 41 42 33 32 30 44 47 48 53 123 111 87 67 55 43 6 16 30 50 162 187 171 170 190 208 221 233 222 214 218 239
142 165 318 349 358 208 191 172 28 11 24 34 35 39 44 40 41 38 40 50 55 78 79 71 61 53 54 62 63 65 45 19 127 138 165 232 238 240 237 242 242 246 252
149 134 102 1 2 29 145 161 135 80 20 359 4 18 25 28 31 34 45 66 56 52 62 66 58 48 45 49 49 44 42 37 40 39 24 346 302 269 264 264 258 255 262
156 155 97 28 28 71 90 95 94 93 68 21 2 359 6 17 31 39 51 65 73 62 56 56 50 46 42 42 43 41 41 36 26 22 18 5 346 315 285 277 275 274 265
171 177 145 94 68 89 100 100 98 97 81 54 28 360 356 32 43 35 39 51 62 60 56 55 48 46 42 38 35 36 37 31 20 16 3 354 345 332 306 299 290 281 270
170 171 132 95 101 113 120 124 124 119 104 76 22 5 44 67 61 55 51 49 53 53 54 55 48 41 37 35 33 34 36 26 13 1 350 338 329 318 303 292 287 283 280
161 163 150 137 128 121 125 132 131 128 123 103 46 36 59 66 67 66 64 61 56 53 54 56 50 39 33 29 23 22 20 11 359 346 335 327 322 317 309 299 295 292 290
155 158 152 143 134 127 116 120 131 136 136 124 103 81 69 71 72 73 73 68 63 57 48 47 47 39 32 32 27 16 4 348 332 322 320 318 317 315 311 307 305 304 300
151 155 154 149 141 136 136 138 141 143 144 135 123 112 104 95 87 83 82 77 70 60 51 46 42 36 27 20 13 3 350 332 318 307 307 308 312 316 320 321 320 320 318
146 148 149 151 151 152 151 147 144 141 141 138 132 122 113 103 96 90 84 79 75 68 59 49 36 26 19 12 4 353 346 346 344 332 315 313 326 332 333 333 334 334 335
147 148 150 149 147 152 154 153 153 151 147 140 133 128 121 113 106 100 92 82 75 66 58 45 33 26 17 8 0 360 3 6 9 11 7 352 357 2 357 348 345 342 337
Height
1488 1490 1491 1492 1493 1494 1494 1495 1495 1495 1495 1495 1495 1494 1493 1493 1493 1493 1493 1493 1494 1495 1496 1498 1500 1503 1506 1509 1512 1515 1519 1521 1523 1526 1528 1530 1532 1533 1535 1537 1538 1538 1539
1488 1490 1491 1492 1493 1493 1494 1494 1494 1494 1494 1494 1494 1493 1493 1492 1492 1491 1491 1491 1491 1492 1492 1493 1495 1498 1500 1503 1506 1509 1512 1515 1519 1521 1524 1526 1528 1530 1532 1533 1535 1536 1536
1488 1489 1491 1492 1493 1493 1493 1493 1494 1494 1494 1494 1493 1493 1493 1492 1492 1491 1490 1490 1490 1490 1490 1491 1492 1494 1496 1498 1500 1503 1506 1510 1513 1517 1520 1522 1524 1526 1527 1529 1531 1532 1533
1487 1489 1490 1491 1492 1493 1493 1493 1493 1493 1493 1493 1492 1492 1492 1492 1491 1491 1490 1490 1490 1490 1490 1490 1491 1492 1493 1494 1496 1498 1502 1504 1508 1512 1515 1518 1520 1522 1523 1524 1526 1527 1529
1486 1487 1489 1490 1491 1491 1491 1491 1491 1492 1491 1491 1491 1491 1491 1491 1491 1491 1490 1490 1490 1490 1490 1490 1491 1491 1492 1493 1494 1496 1498 1500 1503 1506 1510 1513 1515 1517 1519 1520 1521 1523 1524
1485 1486 1487 1487 1488 1488 1488 1489 1489 1489 1489 1489 1489 1489 1489 1489 1489 1490 1490 1490 1490 1490 1491 1491 1491 1491 1492 1493 1494 1495 1497 1499 1500 1503 1505 1508 1510 1513 1515 1516 1517 1517 1518
1484 1485 1485 1485 1485 1485 1485 1485 1486 1486 1486 1486 1486 1486 1486 1487 1487 1488 1488 1489 1489 1490 1490 1491 1491 1491 1492 1493 1493 1495 1496 1497 1499 1501 1502 1503 1506 1508 1510 1511 1511 1511 1512
1483 1483 1483 1483 1483 1482 1482 1482 1481 1481 1481 1482 1482 1482 1483 1483 1484 1485 1486 1486 1487 1488 1489 1490 1490 1491 1491 1492 1492 1493 1494 1495 1496 1498 1499 1500 1502 1503 1504 1506 1506 1507 1507
1484 1483 1482 1481 1480 1479 1478 1477 1477 1477 1476 1477 1477 1478 1479 1480 1481 1482 1483 1484 1485 1486 1487 1488 1488 1489 1490 1490 1491 1491 1492 1493 1494 1494 1496 1497 1498 1499 1499 1500 1500 1501 1501
1485 1484 1482 1480 1479 1477 1475 1474 1473 1472 1472 1472 1473 1474 1475 1476 1477 1479 1480 1481 1482 1484 1485 1486 1486 1487 1487 1488 1488 1488 1489 1490 1491 1491 1492 1493 1494 1494 1495 1495 1496 1496 1496
1487 1486 1483 1481 1479 1476 1474 1472 1471 1470 1469 1469 1470 1471 1472 1473 1474 1476 1477 1478 1479 1481 1482 1483 1484 1485 1485 1485 1485 1486 1486 1487 1487 1488 1489 1490 1490 1491 1491 1491 1491 1491 1492
1489 1487 1485 1482 1480 1477 1475 1473 1472 1470 1470 1469 1469 1469 1470 1470 1472 1473 1474 1475 1476 1478 1480 1481 1482 1482 1483 1483 1483 1483 1483 1484 1485 1485 1486 1487 1487 1487 1487 1487 1487 1487 1487
1491 1489 1487 1485 1482 1480 1478 1475 1474 1472 1471 1470 1469 1469 1469 1469 1470 1471 1472 1473 1474 1476 1477 1478 1479 1480 1480 1480 1480 1480 1480 1481 1482 1483 1484 1484 1484 1484 1484 1484 1484 1484 1484
1493 1491 1489 1487 1485 1483 1481 1479 1477 1475 1474 1472 1471 1471 1470 1470 1470 1471 1471 1472 1473 1474 1475 1476 1477 1477 1477 1478 1478 1478 1478 1479 1480 1480 1481 1481 1481 1481 1481 1481 1481 1480 1480
1495 1493 1491 1489 1487 1486 1484 1481 1480 1478 1476 1475 1474 1473 1472 1471 1471 1471 1471 1472 1472 1473 1474 1474 1475 1475 1475 1475 1476 1476 1476 1477 1478 1478 1479 1479 1479 1479 1479 1478 1478 1478 1478
1496 1494 1493 1491 1489 1488 1486 1484 1482 1480 1479 1477 1476 1475 1473 1473 1472 1472 1472 1472 1472 1473 1473 1473 1473 1473 1474 1474 1474 1475 1475 1476 1476 1477 1477 1477 1477 1477 1476 1476 1476 1475 1475
1497 1495 1494 1492 1490 1489 1487 1486 1484 1483 1481 1479 1477 1476 1475 1474 1474 1473 1473 1473 1473 1473 1473 1473 1473 1473 1473 1473 1474 1474 1475 1475 1475 1475 1475 1475 1475 1474 1474 1474 1473 1473 1472
1497 1496 1494 1493 1492 1490 1489 1487 1486 1484 1483 1481 1479 1478 1477 1476 1475 1475 1474 1474 1474 1474 1474 1474 1473 1473 1473 1474 1474 1474 1474 1474 1474 1474 1474 1473 1473 1472 1472 1471 1471 1470 1469
1497 1496 1495 1494 1493 1492 1490 1489 1488 1486 1485 1483 1482 1481 1480 1479 1478 1477 1477 1476 1475 1475 1475 1475 1475 1475 1475 1475 1474 1474 1474 1473 1473 1473 1472 1471 1471 1470 1469 1469 1468 1467 1466
1497 1496 1495 1495 1494 1493 1492 1491 1489 1488 1487 1486 1484 1483 1483 1482 1481 1480 1479 1479 1478 1478 1477 1477 1477 1476 1476 1475 1474 1474 1473 1472 1471 1471 1470 1469 1468 1467 1466 1465 1464 1463 1462
1497 1496 1496 1495 1494 1494 1493 1492 1491 1490 1489 1488 1487 1486 1485 1484 1483 1483 1482 1481 1481 1480 1479 1479 1478 1477 1476 1475 1474 1473 1472 1471 1470 1469 1468 1467 1466 1464 1463 1462 1461 1460 1458
1496 1496 1496 1495 1495 1494 1494 1493 1492 1492 1491 1490 1489 1488 1488 1487 1486 1485 1484 1483 1482 1481 1480 1479 1478 1477 1476 1475 1473 1472 1471 1469 1468 1467 1466 1464 1463 1462 1460 1459 1457 1456 1454
1495 1495 1495 1495 1495 1495 1494 1494 1493 1493 1492 1492 1491 1491 1490 1489 1488 1487 1486 1484 1483 1482 1481 1480 1478 1477 1475 1474 1472 1471 1469 1467 1466 1464 1463 1461 1460 1458 1457 1455 1454 1452 1450
1494 1494 1495 1495 1495 1495 1495 1494 1494 1494 1493 1493 1492 1492 1491 1490 1489 1488 1486 1485 1483 1482 1481 1479 1478 1476 1474 1473 1471 1469 1467 1465 1464 1462 1460 1458 1457 1456 1454 1452 1451 1449 1447
1494 1494 1494 1494 1494 1494 1495 1495 1494 1494 1494 1494 1493 1492 1492 1490 1489 1488 1486 1485 1483 1482 1480 1479 1477 1476 1474 1472 1470 1468 1466 1464 1462 1460 1459 1457 1455 1454 1452 1450 1448 1446 1445
1493 1493 1493 1494 1494 1494 1494 1495 1495 1495 1494 1494 1493 1493 1492 1491 1489 1488 1486 1485 1483 1482 1481 1479 1478 1476 1474 1472 1470 1468 1466 1464 1461 1459 1458 1456 1454 1452 1450 1448 1447 1445 1443